Rotterdam, Netherlands

12:24 PM CEST on August 29, 2016 (GMT +0200)
Rotterdam

Weather History for EHRD - July, 2013

Change the Weather History Date:

Thursday, July 4, 2013

  Actual Average Record
Temperature  
Mean Temperature 64 °F -  
Max Temperature 70 °F 69 °F 89 °F (2006)
Min Temperature 58 °F 54 °F 46 °F (2011)
Degree Days  
Heating Degree Days 1    
Growing Degree Days 14 (Base 50)    
Moisture  
Dew Point 59 °F    
Average Humidity 84    
Maximum Humidity 100    
Minimum Humidity 67    
Precipitation  
Precipitation 0.00 in - - ()
Sea Level Pressure  
Sea Level Pressure 30.10 in    
Wind  
Wind Speed 7 mph ()    
Max Wind Speed 16 mph    
Max Gust Speed -    
Visibility 6.7 miles    
Events      
Averages and records for this station are not official NWS values.
T = Trace of Precipitation, MM = Missing Value Source: Averaged Metar Reports

Daily Weather History Graph

Daily Weather History Graph

Search for Another Location

Airport or City:

Trip Planner

Search our weather history database for the weather conditions in past years. The results will help you decide how hot, cold, wet, or windy it might be!

Date:

Astronomy

Jul. 04, 2013 Rise Set
Actual Time 5:29 AM CEST 10:03 PM CEST
Civil Twilight 4:41 AM CEST 10:51 PM CEST
Nautical Twilight 3:27 AM CEST 12:04 AM CEST
Astronomical Twilight 2:19 AM CEST 1:14 AM CEST
Moon 2:48 AM CEST (7/4) 6:44 PM CEST (7/4)
Length of Visible Light 18h 09m
Length of Day
16h 34m
Waning Crescent, 13% of the Moon is Illuminated
Jul 4
Waning Crescent
Jul 8
New
Jul 16
First Quarter
Jul 22
Full
Jul 29
Last Quarter

Hourly Weather History & Observations

Time (CEST) Temp. Dew Point Humidity Pressure Visibility Wind Dir Wind Speed Gust Speed Precip Events Conditions
12:25 AM 60.8 °F 59.0 °F 94% 29.98 in 6.2 mi WSW 4.6 mph - N/A   Overcast
12:55 AM 60.8 °F 59.0 °F 94% 29.98 in 6.2 mi WSW 4.6 mph - N/A   Overcast
1:25 AM 60.8 °F 59.0 °F 94% 29.98 in 6.2 mi SW 5.8 mph - N/A   Overcast
1:55 AM 60.8 °F 59.0 °F 94% 30.01 in 6.2 mi WSW 5.8 mph - N/A   Mostly Cloudy
2:00 AM 61 °F 59 °F 89% 30.01 in 7 mi WSW 6.7 mph - -   Partly Cloudy
2:25 AM 60.8 °F 59.0 °F 94% 30.01 in 6.2 mi WSW 5.8 mph - N/A   Mostly Cloudy
2:55 AM 60.8 °F 59.0 °F 94% 30.01 in 6.2 mi WSW 4.6 mph - N/A   Unknown
3:25 AM 60.8 °F 59.0 °F 94% 30.01 in 6.2 mi WSW 5.8 mph - N/A   Unknown
3:55 AM 59.0 °F 59.0 °F 100% 30.01 in 6.2 mi WSW 5.8 mph - N/A   Unknown
4:25 AM 59.0 °F 59.0 °F 100% 30.01 in 6.2 mi WSW 4.6 mph - N/A   Unknown
4:55 AM 59.0 °F 59.0 °F 100% 30.01 in 6.2 mi SW 3.5 mph - N/A   Unknown
5:00 AM 60 °F 58 °F 92% 30.03 in 6 mi SW 4.5 mph - -   Overcast
5:25 AM 59.0 °F 59.0 °F 100% 30.01 in 5.6 mi SW 3.5 mph - N/A   Unknown
5:55 AM 59.0 °F 59.0 °F 100% 30.01 in 5.6 mi SW 3.5 mph - N/A   Unknown
6:25 AM 60.8 °F 59.0 °F 94% 30.04 in 6.2 mi SSW 3.5 mph - N/A   Unknown
6:55 AM 60.8 °F 59.0 °F 94% 30.04 in 6.2 mi South 3.5 mph - N/A   Unknown
7:25 AM 62.6 °F 59.0 °F 88% 30.04 in 6.2 mi South 5.8 mph - N/A   Partly Cloudy
7:55 AM 62.6 °F 59.0 °F 88% 30.04 in 6.2 mi SSW 6.9 mph - N/A   Overcast
8:00 AM 63 °F 60 °F 85% 30.06 in 7 mi SW 6.7 mph - -   Partly Cloudy
8:25 AM 62.6 °F 59.0 °F 88% 30.06 in 6.2 mi SW 6.9 mph - N/A   Unknown
8:55 AM 64.4 °F 59.0 °F 83% 30.06 in 6.2 mi SSW 5.8 mph - N/A   Unknown
9:25 AM 66.2 °F 59.0 °F 78% 30.06 in 6.2 mi SW 5.8 mph - N/A   Partly Cloudy
9:55 AM 68.0 °F 57.2 °F 68% 30.06 in 6.2 mi SW 10.4 mph - N/A   Partly Cloudy
10:25 AM 68.0 °F 59.0 °F 73% 30.09 in 6.2 mi SW 11.5 mph - N/A   Scattered Clouds
10:55 AM 66.2 °F 57.2 °F 73% 30.09 in 6.2 mi SW 12.7 mph - N/A   Scattered Clouds
11:00 AM 66 °F 58 °F 67% 30.11 in 14 mi SW 13.4 mph - -   Partly Cloudy
11:25 AM 66.2 °F 57.2 °F 73% 30.09 in 6.2 mi SW 13.8 mph - N/A   Mostly Cloudy
11:55 AM 66.2 °F 57.2 °F 73% 30.09 in 6.2 mi WSW 12.7 mph - N/A   Mostly Cloudy
12:25 PM 68.0 °F 59.0 °F 73% 30.09 in 6.2 mi SW 15.0 mph - N/A   Mostly Cloudy
12:55 PM 68.0 °F 59.0 °F 73% 30.09 in 6.2 mi WSW 15.0 mph - N/A   Mostly Cloudy
1:25 PM 68.0 °F 57.2 °F 68% 30.09 in 6.2 mi WSW 12.7 mph - N/A   Mostly Cloudy
1:55 PM 68.0 °F 59.0 °F 73% 30.12 in 6.2 mi SW 15.0 mph - N/A   Overcast
2:00 PM 67 °F 59 °F 69% 30.14 in 9 mi West 13.4 mph - -   Partly Cloudy
2:25 PM 64.4 °F 59.0 °F 83% 30.12 in 6.2 mi West 13.8 mph - N/A   Overcast
2:55 PM 66.2 °F 59.0 °F 78% 30.12 in 6.2 mi WSW 13.8 mph - N/A   Mostly Cloudy
3:25 PM 64.4 °F 57.2 °F 77% 30.12 in 6.2 mi SW 16.1 mph - N/A   Overcast
3:55 PM 64.4 °F 57.2 °F 77% 30.15 in 6.2 mi SW 16.1 mph - N/A   Overcast
4:25 PM 64.4 °F 57.2 °F 77% 30.15 in 6.2 mi SW 15.0 mph - N/A   Overcast
4:55 PM 64.4 °F 57.2 °F 77% 30.15 in 6.2 mi SW 15.0 mph - N/A   Overcast
5:00 PM 65 °F 58 °F 71% 30.17 in 12 mi SW 11.2 mph - -   Overcast
5:25 PM 64.4 °F 57.2 °F 77% 30.15 in 6.2 mi SW 13.8 mph - N/A   Overcast
5:55 PM 62.6 °F 59.0 °F 88% 30.15 in 6.2 mi SW 13.8 mph - N/A   Overcast
6:25 PM 62.6 °F 59.0 °F 88% 30.15 in 6.2 mi SW 13.8 mph - N/A   Overcast
6:55 PM 62.6 °F 60.8 °F 94% 30.15 in 5.6 mi SW 9.2 mph - N/A   Overcast
7:25 PM 62.6 °F 60.8 °F 94% 30.18 in 6.2 mi SW 10.4 mph - N/A   Mostly Cloudy
7:55 PM 64.4 °F 59.0 °F 83% 30.18 in 6.2 mi SW 15.0 mph - N/A   Mostly Cloudy
8:00 PM 64 °F 59 °F 79% 30.19 in 14 mi SW 11.2 mph - -   Partly Cloudy
8:25 PM 64.4 °F 59.0 °F 83% 30.18 in 6.2 mi SW 11.5 mph - N/A   Overcast
8:55 PM 64.4 °F 59.0 °F 83% 30.18 in 6.2 mi SW 8.1 mph - N/A   Overcast
9:25 PM 64.4 °F 59.0 °F 83% 30.18 in 6.2 mi SW 10.4 mph - N/A   Overcast
9:55 PM 64.4 °F 59.0 °F 83% 30.21 in 6.2 mi SW 9.2 mph - N/A   Mostly Cloudy
10:25 PM 64.4 °F 59.0 °F 83% 30.21 in 6.2 mi SSW 8.1 mph - N/A   Overcast
10:55 PM 64.4 °F 59.0 °F 83% 30.21 in 6.2 mi SSW 6.9 mph - N/A   Overcast
11:00 PM 63 °F 59 °F 83% 30.24 in 12 mi SW 6.7 mph - -   Overcast
11:25 PM 62.6 °F 59.0 °F 88% 30.21 in 6.2 mi SW 6.9 mph - N/A   Mostly Cloudy
11:55 PM 62.6 °F 59.0 °F 88% 30.24 in 6.2 mi SW 9.2 mph - N/A   Overcast